Tracking 29892 objects as of 21-Nov-2024
HD Live streaming from Space Station
objects crossing your sky now

STARLINK-11317

Track STARLINK-11317 now!
10-day predictions
STARLINK-11317 is classified as:


NORAD ID: 61248
Int'l Code: 2024-175F
Perigee: 365.9 km
Apogee: 367.8 km
Inclination: 53.2 °
Period: 91.7 minutes
Semi major axis: 6737 km
RCS: Unknown
Launch date: September 25, 2024
Source: United States (US)
Launch site: AIR FORCE WESTERN TEST RANGE (AFWTR)
Your satellite tracking list
Your tracking list is empty




NASA's NSSDC Master Catalog

Two Line Element Set (TLE):
1 61248U 24175F   24325.18531836  .00002963  00000-0  29302-4 0  9991
2 61248  53.1589 235.1517 0001421  84.3001 275.8179 15.69719361  8849
Source of the keplerian elements: AFSPC